Location: Krasnoyarskiy Pitomnik
(51.1333°N, 71.6167°E)
Time: 10:16:48
(UTC+00:00)

Altair - Pass Details

Date: 22 April 2024
Orbit: 1502 x 1682 km, 47.2° (Epoch: 23 May)

Event Time Altitude Azimuth Distance (km) Brightness Sun altitude
Rises 18:53:15 0° 284° (WNW) 4,860 10.4 -26.2°
Reaches altitude 10° 18:56:33 10° 279° (W) 3,848 9.7 -26.2°
Maximum altitude 19:05:40 47° 211° (SSW) 2,006 7.7 -26.3°
Enters shadow 19:06:48 45° 192° (SSW) 2,039 7.6 -26.3°
